ASE5713 ZBSJ-UNAA

Flight info

Callsign ASE5713
Flight time 3h 25m
Altitude 38100
Route VADKA8ZD VADKA B458 TMR G343 NIXAL Y746 LEDED/K0841S1220 Y746 DARNO/K0837F400 P982 TR G809 BEKPU
Aircraft IL76/H-SDFGHIM1RTUWXY/LB1

Departure

Time 2026-05-08 20:29
Airport Shijiazhuang Zhengding International Airport (ZBSJ)

Arrival

Time 2026-05-08 23:55
Airport Abakan International Airport (UNAA)
Time Latitude Longitude Altitude Speed Heading
2026-05-08 20:29 38.51033 114.68687 14284 ft 378 kts 327°
2026-05-08 20:29 38.53317 114.66927 14908 ft 387 kts 327°
2026-05-08 20:30 38.55639 114.65139 15662 ft 392 kts 327°
2026-05-08 20:30 38.57978 114.63329 16447 ft 395 kts 326°
2026-05-08 20:30 38.60334 114.61484 17242 ft 399 kts 327°
2026-05-08 20:30 38.62718 114.59632 18011 ft 402 kts 326°
2026-05-08 20:31 38.65114 114.57764 18685 ft 406 kts 326°
2026-05-08 20:31 38.67533 114.55876 19328 ft 409 kts 326°
2026-05-08 20:31 38.69970 114.53969 19983 ft 411 kts 326°
2026-05-08 20:31 38.72421 114.52046 20642 ft 414 kts 326°
2026-05-08 20:32 38.74890 114.50106 21303 ft 417 kts 326°
2026-05-08 20:32 38.77345 114.48182 21972 ft 420 kts 327°
2026-05-08 20:32 38.79928 114.46373 22570 ft 427 kts 336°
2026-05-08 20:32 38.82836 114.45454 23230 ft 434 kts 348°
2026-05-08 20:33 38.85843 114.44927 23823 ft 438 kts 350°
2026-05-08 20:33 38.88867 114.44376 24369 ft 440 kts 348°
2026-05-08 20:33 38.91887 114.43701 24927 ft 442 kts 346°
2026-05-08 20:33 38.94908 114.42936 25485 ft 444 kts 345°
2026-05-08 20:34 38.97945 114.42149 26054 ft 446 kts 345°
2026-05-08 20:34 39.00996 114.41364 26656 ft 447 kts 345°
2026-05-08 20:34 39.07127 114.39806 27858 ft 448 kts 345°
2026-05-08 20:35 39.10126 114.39019 28709 ft 444 kts 344°
2026-05-08 20:35 39.13135 114.38238 29662 ft 438 kts 344°
2026-05-08 20:35 39.16112 114.37481 30400 ft 434 kts 344°
2026-05-08 20:35 39.19059 114.36706 31108 ft 430 kts 343°
2026-05-08 20:36 39.21981 114.35951 31805 ft 427 kts 344°
2026-05-08 20:36 39.24884 114.35192 32505 ft 423 kts 343°
2026-05-08 20:36 39.27770 114.34444 33143 ft 421 kts 343°
2026-05-08 20:36 39.30640 114.33696 33796 ft 418 kts 343°
2026-05-08 20:37 39.33490 114.32949 34321 ft 416 kts 343°
2026-05-08 20:37 39.36293 114.32213 34773 ft 416 kts 343°
2026-05-08 20:37 39.39133 114.31479 35207 ft 416 kts 343°
2026-05-08 20:37 39.41959 114.30755 35762 ft 412 kts 343°
2026-05-08 20:38 39.44777 114.30040 36201 ft 412 kts 343°
2026-05-08 20:38 39.47593 114.29328 36585 ft 411 kts 343°
2026-05-08 20:38 39.50398 114.28585 36973 ft 411 kts 342°
2026-05-08 20:38 39.53204 114.27849 37365 ft 411 kts 342°
2026-05-08 20:39 39.56013 114.27109 37720 ft 411 kts 342°
2026-05-08 20:39 39.58790 114.26373 37904 ft 415 kts 342°
2026-05-08 20:39 39.61628 114.25649 38006 ft 414 kts 342°
2026-05-08 20:40 39.67253 114.24163 38017 ft 411 kts 342°
2026-05-08 20:40 39.72878 114.22700 38018 ft 412 kts 342°
2026-05-08 20:41 39.78496 114.21227 38000 ft 412 kts 342°
2026-05-08 20:41 39.84119 114.19755 37995 ft 412 kts 342°
2026-05-08 20:42 39.89745 114.18278 38010 ft 413 kts 342°
2026-05-08 20:42 39.95381 114.16794 37996 ft 413 kts 342°
2026-05-08 20:43 40.01015 114.15308 37995 ft 413 kts 342°
2026-05-08 20:43 40.06663 114.13835 37976 ft 414 kts 343°
2026-05-08 20:44 40.12294 114.12411 37972 ft 415 kts 343°
2026-05-08 20:44 40.17975 114.10972 37974 ft 416 kts 343°
2026-05-08 20:45 40.23655 114.09526 37988 ft 416 kts 343°
2026-05-08 20:45 40.29345 114.08078 37974 ft 416 kts 343°
2026-05-08 20:46 40.35025 114.06600 37979 ft 416 kts 343°
2026-05-08 20:46 40.40714 114.05128 37979 ft 415 kts 341°
2026-05-08 20:46 40.43416 114.03921 37984 ft 407 kts 330°
2026-05-08 20:47 40.45954 114.02284 37973 ft 406 kts 328°
2026-05-08 20:47 40.50973 113.98951 37981 ft 407 kts 329°
2026-05-08 20:48 40.56096 113.95759 37967 ft 408 kts 330°
2026-05-08 20:48 40.61233 113.92617 37980 ft 407 kts 330°
2026-05-08 20:49 40.66388 113.89467 37964 ft 408 kts 330°
2026-05-08 20:49 40.71538 113.86303 37958 ft 409 kts 330°
2026-05-08 20:50 40.76692 113.83106 37959 ft 409 kts 330°
2026-05-08 20:50 40.81804 113.79938 37955 ft 409 kts 329°
2026-05-08 20:51 40.86944 113.76741 37956 ft 408 kts 329°
2026-05-08 20:51 40.92086 113.73538 37943 ft 409 kts 329°
2026-05-08 20:52 40.97236 113.70321 37938 ft 409 kts 329°
2026-05-08 20:52 41.02382 113.67109 37943 ft 409 kts 329°
2026-05-08 20:53 41.07538 113.63884 37917 ft 409 kts 329°
2026-05-08 20:53 41.12693 113.60658 37933 ft 410 kts 329°
2026-05-08 20:54 41.17857 113.57416 37915 ft 410 kts 329°
2026-05-08 20:54 41.22994 113.54196 37910 ft 411 kts 329°
2026-05-08 20:55 41.28172 113.50938 37923 ft 412 kts 329°
2026-05-08 20:55 41.33362 113.47657 37912 ft 413 kts 329°
2026-05-08 20:56 41.38550 113.44362 37904 ft 413 kts 329°
2026-05-08 20:56 41.43767 113.41075 37896 ft 414 kts 329°
2026-05-08 20:57 41.48988 113.37775 37902 ft 415 kts 329°
2026-05-08 20:57 41.54183 113.34480 37901 ft 416 kts 329°
2026-05-08 20:58 41.59418 113.31157 37888 ft 417 kts 329°
2026-05-08 20:58 41.64668 113.27820 37891 ft 417 kts 329°
2026-05-08 20:59 41.69917 113.24471 37891 ft 417 kts 329°
2026-05-08 20:59 41.75160 113.21120 37880 ft 417 kts 329°
2026-05-08 21:00 41.80398 113.17770 37879 ft 417 kts 329°
2026-05-08 21:00 41.85511 113.14247 37855 ft 410 kts 316°
2026-05-08 21:00 41.87425 113.11515 37908 ft 401 kts 303°
2026-05-08 21:01 41.88985 113.08406 37872 ft 403 kts 301°
2026-05-08 21:01 41.92266 113.02290 37852 ft 405 kts 306°
2026-05-08 21:02 41.95842 112.96447 37858 ft 405 kts 307°
2026-05-08 21:02 41.99459 112.90640 37866 ft 405 kts 307°
2026-05-08 21:03 42.03040 112.84805 37850 ft 404 kts 307°
2026-05-08 21:03 42.06593 112.79007 37847 ft 404 kts 307°
2026-05-08 21:04 42.10169 112.73153 37841 ft 405 kts 307°
2026-05-08 21:04 42.13745 112.67293 37847 ft 405 kts 307°
2026-05-08 21:05 42.17324 112.61411 37834 ft 405 kts 307°
2026-05-08 21:05 42.20896 112.55527 37832 ft 405 kts 307°
2026-05-08 21:06 42.24465 112.49637 37823 ft 406 kts 307°
2026-05-08 21:06 42.27431 112.44739 37826 ft 406 kts 307°
2026-05-08 21:07 42.31603 112.37830 37832 ft 406 kts 306°
2026-05-08 21:07 42.35146 112.31946 37828 ft 406 kts 306°
2026-05-08 21:08 42.38133 112.26981 37832 ft 406 kts 306°
2026-05-08 21:08 42.41680 112.21076 37821 ft 407 kts 307°
2026-05-08 21:09 42.45241 112.15135 37818 ft 407 kts 307°
2026-05-08 21:09 42.48802 112.09167 37818 ft 407 kts 306°
2026-05-08 21:10 42.52360 112.03203 37821 ft 407 kts 306°
2026-05-08 21:10 42.55919 111.97227 37826 ft 407 kts 306°
2026-05-08 21:11 42.59457 111.91283 37809 ft 408 kts 306°
2026-05-08 21:11 42.63035 111.85309 37818 ft 408 kts 307°
2026-05-08 21:12 42.66659 111.79373 37807 ft 408 kts 307°
2026-05-08 21:12 42.70279 111.73411 37813 ft 408 kts 307°
2026-05-08 21:13 42.73893 111.67436 37793 ft 409 kts 307°
2026-05-08 21:13 42.77508 111.61455 37808 ft 410 kts 307°
2026-05-08 21:14 42.81103 111.55501 37807 ft 409 kts 307°
2026-05-08 21:14 42.84720 111.49500 37797 ft 410 kts 307°
2026-05-08 21:15 42.88336 111.43481 37793 ft 410 kts 307°
2026-05-08 21:15 42.91945 111.37456 37795 ft 410 kts 307°
2026-05-08 21:16 42.95562 111.31418 37791 ft 411 kts 307°
2026-05-08 21:16 42.99177 111.25359 37792 ft 411 kts 307°
2026-05-08 21:17 43.02793 111.19294 37794 ft 412 kts 307°
2026-05-08 21:17 43.06411 111.13216 37804 ft 412 kts 307°
2026-05-08 21:18 43.10006 111.07159 37794 ft 413 kts 307°
2026-05-08 21:18 43.13628 111.01047 37802 ft 414 kts 307°
2026-05-08 21:19 43.17259 110.94915 37809 ft 414 kts 307°
2026-05-08 21:19 43.20893 110.88763 37802 ft 415 kts 308°
2026-05-08 21:20 43.24806 110.82911 37808 ft 417 kts 312°
2026-05-08 21:20 43.28877 110.77232 37808 ft 417 kts 313°
2026-05-08 21:21 43.32946 110.71522 37806 ft 417 kts 312°
2026-05-08 21:21 43.36948 110.65828 37805 ft 417 kts 312°
2026-05-08 21:22 43.40978 110.60095 37819 ft 416 kts 312°
2026-05-08 21:22 43.45002 110.54353 37806 ft 416 kts 312°
2026-05-08 21:23 43.49017 110.48612 37810 ft 416 kts 312°
2026-05-08 21:23 43.53024 110.42864 37813 ft 415 kts 313°
2026-05-08 21:24 43.56988 110.37161 37816 ft 414 kts 313°
2026-05-08 21:24 43.60970 110.31430 37814 ft 413 kts 312°
2026-05-08 21:25 43.64948 110.25691 37834 ft 413 kts 312°
2026-05-08 21:25 43.68910 110.19954 37826 ft 413 kts 312°
2026-05-08 21:26 43.72872 110.14211 37830 ft 412 kts 313°
2026-05-08 21:26 43.76795 110.08506 37827 ft 412 kts 312°
2026-05-08 21:27 43.80742 110.02761 37834 ft 411 kts 312°
2026-05-08 21:27 43.84680 109.97012 37830 ft 411 kts 312°
2026-05-08 21:28 43.88614 109.91260 37837 ft 410 kts 312°
2026-05-08 21:28 43.92543 109.85502 37841 ft 411 kts 312°
2026-05-08 21:29 43.96473 109.79730 37838 ft 411 kts 312°
2026-05-08 21:29 44.00406 109.73949 37842 ft 411 kts 312°
2026-05-08 21:30 44.04335 109.68156 37842 ft 411 kts 312°
2026-05-08 21:30 44.08261 109.62354 37842 ft 412 kts 312°
2026-05-08 21:31 44.12159 109.56578 37844 ft 412 kts 312°
2026-05-08 21:31 44.16096 109.50751 37851 ft 412 kts 312°
2026-05-08 21:32 44.20018 109.44922 37851 ft 412 kts 312°
2026-05-08 21:32 44.23941 109.39083 37856 ft 413 kts 312°
2026-05-08 21:33 44.27840 109.33276 37863 ft 413 kts 312°
2026-05-08 21:33 44.31766 109.27428 37861 ft 413 kts 312°
2026-05-08 21:34 44.35695 109.21569 37876 ft 413 kts 312°
2026-05-08 21:34 44.39626 109.15702 37883 ft 413 kts 312°
2026-05-08 21:35 44.43555 109.09829 37881 ft 414 kts 312°
2026-05-08 21:35 44.47469 109.03928 37890 ft 414 kts 312°
2026-05-08 21:36 44.51379 108.98011 37904 ft 414 kts 312°
2026-05-08 21:36 44.55272 108.92119 37911 ft 414 kts 311°
2026-05-08 21:37 44.59179 108.86183 37913 ft 414 kts 311°
2026-05-08 21:37 44.63088 108.80233 37918 ft 414 kts 311°
2026-05-08 21:38 44.66995 108.74280 37922 ft 415 kts 312°
2026-05-08 21:38 44.70911 108.68305 37932 ft 415 kts 311°
2026-05-08 21:39 44.74830 108.62305 37946 ft 416 kts 311°
2026-05-08 21:39 44.78721 108.56335 37940 ft 417 kts 311°
2026-05-08 21:40 44.82643 108.50312 37941 ft 418 kts 311°
2026-05-08 21:40 44.86573 108.44262 37957 ft 418 kts 311°
2026-05-08 21:41 44.92451 108.35150 37957 ft 418 kts 311°
2026-05-08 21:41 44.96301 108.28992 37971 ft 418 kts 311°
2026-05-08 21:42 45.00176 108.22929 37968 ft 418 kts 311°
2026-05-08 21:42 45.04087 108.16843 37977 ft 418 kts 311°
2026-05-08 21:43 45.07994 108.10749 37974 ft 418 kts 311°
2026-05-08 21:43 45.11899 108.04649 37982 ft 418 kts 311°
2026-05-08 21:44 45.15799 107.98544 37987 ft 418 kts 311°
2026-05-08 21:44 45.19705 107.92414 38000 ft 418 kts 311°
2026-05-08 21:45 45.23604 107.86285 38003 ft 418 kts 311°
2026-05-08 21:45 45.27472 107.80184 38004 ft 419 kts 311°
2026-05-08 21:46 45.31367 107.74030 37998 ft 420 kts 311°
2026-05-08 21:46 45.35278 107.67845 38003 ft 420 kts 311°
2026-05-08 21:47 45.39183 107.61645 38012 ft 421 kts 311°
2026-05-08 21:47 45.43099 107.55416 38020 ft 422 kts 312°
2026-05-08 21:48 45.47008 107.49188 38022 ft 422 kts 311°
2026-05-08 21:48 45.50912 107.42954 38042 ft 421 kts 311°
2026-05-08 21:49 45.54777 107.36761 38035 ft 420 kts 311°
2026-05-08 21:49 45.58653 107.30539 38038 ft 419 kts 311°
2026-05-08 21:50 45.62516 107.24327 38051 ft 417 kts 311°
2026-05-08 21:50 45.66362 107.18115 38060 ft 416 kts 312°
2026-05-08 21:51 45.70201 107.11915 38047 ft 416 kts 312°
2026-05-08 21:51 45.74046 107.05701 38060 ft 416 kts 312°
2026-05-08 21:52 45.77852 106.99515 38066 ft 417 kts 312°
2026-05-08 21:52 45.81714 106.93242 38078 ft 417 kts 312°
2026-05-08 21:53 45.85526 106.87023 38075 ft 418 kts 312°
2026-05-08 21:53 45.89360 106.80712 38073 ft 419 kts 311°
2026-05-08 21:54 45.93181 106.74404 38087 ft 419 kts 311°
2026-05-08 21:54 45.96991 106.68136 38094 ft 419 kts 312°
2026-05-08 21:55 46.00828 106.61820 38084 ft 419 kts 312°
2026-05-08 21:56 46.05930 106.53412 38088 ft 419 kts 312°
2026-05-08 21:56 46.09762 106.47089 38086 ft 419 kts 312°
2026-05-08 21:57 46.13590 106.40775 38098 ft 417 kts 312°
2026-05-08 21:57 46.17391 106.34448 38101 ft 416 kts 311°
2026-05-08 21:58 46.21182 106.28130 38122 ft 415 kts 312°
2026-05-08 21:58 46.24962 106.21815 38111 ft 414 kts 311°
2026-05-08 21:59 46.28724 106.15512 38113 ft 413 kts 311°
2026-05-08 21:59 46.32455 106.09251 38114 ft 412 kts 311°
2026-05-08 22:00 46.36192 106.02965 38112 ft 411 kts 311°
2026-05-08 22:00 46.39925 105.96677 38120 ft 410 kts 311°
2026-05-08 22:01 46.43629 105.90405 38125 ft 409 kts 311°
2026-05-08 22:01 46.47293 105.84164 38119 ft 408 kts 311°
2026-05-08 22:02 46.50963 105.77882 38123 ft 407 kts 311°
2026-05-08 22:02 46.54629 105.71607 38135 ft 407 kts 311°
2026-05-08 22:03 46.58303 105.65349 38127 ft 407 kts 311°
2026-05-08 22:03 46.61967 105.59082 38138 ft 406 kts 311°
2026-05-08 22:04 46.65605 105.52852 38114 ft 407 kts 311°
2026-05-08 22:04 46.69277 105.46571 38140 ft 407 kts 311°
2026-05-08 22:05 46.72949 105.40291 38130 ft 407 kts 311°
2026-05-08 22:05 46.76632 105.34006 38134 ft 408 kts 311°
2026-05-08 22:06 46.80292 105.27677 38138 ft 407 kts 311°
2026-05-08 22:06 46.83947 105.21333 38150 ft 408 kts 311°
2026-05-08 22:07 46.87598 105.14981 38141 ft 408 kts 311°
2026-05-08 22:07 46.91236 105.08652 38135 ft 408 kts 311°
2026-05-08 22:08 46.94883 105.02283 38140 ft 408 kts 311°
2026-05-08 22:08 46.98529 104.95898 38145 ft 408 kts 310°
2026-05-08 22:09 47.02170 104.89513 38149 ft 408 kts 310°
2026-05-08 22:09 47.05810 104.83118 38153 ft 409 kts 310°
2026-05-08 22:10 47.09424 104.76756 38153 ft 408 kts 310°
2026-05-08 22:10 47.13056 104.70348 38158 ft 408 kts 310°
2026-05-08 22:11 47.16691 104.63930 38148 ft 409 kts 310°
2026-05-08 22:11 47.20332 104.57508 38148 ft 408 kts 310°
2026-05-08 22:12 47.23951 104.51125 38143 ft 409 kts 310°
2026-05-08 22:12 47.27587 104.44674 38161 ft 409 kts 310°
2026-05-08 22:13 47.31206 104.38203 38150 ft 410 kts 310°
2026-05-08 22:13 47.34827 104.31721 38164 ft 409 kts 310°
2026-05-08 22:14 47.38444 104.25210 38153 ft 410 kts 310°
2026-05-08 22:14 47.42066 104.18699 38165 ft 410 kts 310°
2026-05-08 22:15 47.45614 104.12164 38169 ft 410 kts 309°
2026-05-08 22:15 47.49207 104.05599 38177 ft 410 kts 310°
2026-05-08 22:16 47.52806 103.99042 38179 ft 411 kts 310°
2026-05-08 22:16 47.56426 103.92479 38166 ft 411 kts 310°
2026-05-08 22:17 47.60036 103.85919 38181 ft 411 kts 310°
2026-05-08 22:17 47.63658 103.79347 38162 ft 411 kts 310°
2026-05-08 22:18 47.67282 103.72778 38176 ft 411 kts 310°
2026-05-08 22:18 47.70862 103.66220 38181 ft 411 kts 310°
2026-05-08 22:19 47.74456 103.59592 38171 ft 411 kts 309°
2026-05-08 22:19 47.78054 103.52960 38170 ft 412 kts 309°
2026-05-08 22:20 47.81640 103.46311 38166 ft 412 kts 309°
2026-05-08 22:20 47.85207 103.39700 38159 ft 412 kts 309°
2026-05-08 22:21 47.88791 103.33030 38152 ft 412 kts 309°
2026-05-08 22:21 47.92379 103.26359 38140 ft 412 kts 309°
2026-05-08 22:22 47.95968 103.19686 38134 ft 412 kts 309°
2026-05-08 22:22 47.99551 103.12977 38122 ft 413 kts 309°
2026-05-08 22:23 48.03115 103.06267 38131 ft 413 kts 309°
2026-05-08 22:23 48.06669 102.99590 38142 ft 412 kts 309°
2026-05-08 22:24 48.10234 102.92848 38132 ft 413 kts 309°
2026-05-08 22:24 48.13798 102.86109 38135 ft 413 kts 308°
2026-05-08 22:25 48.17358 102.79353 38133 ft 413 kts 308°
2026-05-08 22:25 48.20921 102.72585 38140 ft 413 kts 308°
2026-05-08 22:26 48.24483 102.65806 38140 ft 413 kts 308°
2026-05-08 22:26 48.28029 102.59062 38144 ft 414 kts 308°
2026-05-08 22:27 48.31603 102.52273 38147 ft 414 kts 308°
2026-05-08 22:27 48.35182 102.45473 38141 ft 414 kts 308°
2026-05-08 22:28 48.38728 102.38636 38136 ft 414 kts 308°
2026-05-08 22:28 48.42278 102.31795 38134 ft 414 kts 308°
2026-05-08 22:29 48.45816 102.24929 38126 ft 415 kts 308°
2026-05-08 22:29 48.49340 102.18096 38130 ft 415 kts 308°
2026-05-08 22:30 48.52882 102.11204 38122 ft 415 kts 308°
2026-05-08 22:30 48.56424 102.04297 38121 ft 416 kts 308°
2026-05-08 22:31 48.59969 101.97375 38125 ft 417 kts 308°
2026-05-08 22:31 48.63518 101.90459 38114 ft 416 kts 308°
2026-05-08 22:32 48.67076 101.83534 38110 ft 417 kts 308°
2026-05-08 22:32 48.70606 101.76637 38114 ft 417 kts 307°
2026-05-08 22:33 48.74115 101.69634 38106 ft 417 kts 307°
2026-05-08 22:33 48.77600 101.62591 38096 ft 418 kts 307°
2026-05-08 22:34 48.81119 101.55584 38109 ft 417 kts 307°
2026-05-08 22:34 48.84649 101.48565 38090 ft 418 kts 307°
2026-05-08 22:35 48.88167 101.41533 38080 ft 418 kts 307°
2026-05-08 22:35 48.91665 101.34551 38084 ft 418 kts 307°
2026-05-08 22:36 48.95178 101.27511 38079 ft 418 kts 307°
2026-05-08 22:36 48.98702 101.20450 38078 ft 418 kts 307°
2026-05-08 22:37 49.02221 101.13393 38075 ft 418 kts 307°
2026-05-08 22:37 49.05749 101.06324 38081 ft 418 kts 307°
2026-05-08 22:38 49.09228 100.99284 38090 ft 418 kts 307°
2026-05-08 22:38 49.12729 100.92176 38092 ft 418 kts 307°
2026-05-08 22:39 49.16219 100.85056 38097 ft 418 kts 307°
2026-05-08 22:39 49.19707 100.77934 38093 ft 419 kts 307°
2026-05-08 22:40 49.23193 100.70783 38095 ft 419 kts 307°
2026-05-08 22:40 49.26664 100.63668 38076 ft 419 kts 307°
2026-05-08 22:41 49.30155 100.56491 38083 ft 420 kts 306°
2026-05-08 22:41 49.33635 100.49283 38053 ft 420 kts 307°
2026-05-08 22:42 49.37117 100.42067 38064 ft 421 kts 307°
2026-05-08 22:42 49.40582 100.34897 38070 ft 421 kts 307°
2026-05-08 22:43 49.44076 100.27672 38070 ft 421 kts 307°
2026-05-08 22:43 49.47568 100.20445 38077 ft 420 kts 307°
2026-05-08 22:44 49.51041 100.13194 38054 ft 421 kts 306°
2026-05-08 22:44 49.54511 100.05925 38059 ft 421 kts 306°
2026-05-08 22:45 49.57945 99.98693 38064 ft 421 kts 306°
2026-05-08 22:45 49.61395 99.91398 38075 ft 421 kts 306°
2026-05-08 22:46 49.64783 99.84027 38053 ft 422 kts 306°
2026-05-08 22:46 49.68218 99.76692 38056 ft 421 kts 306°
2026-05-08 22:47 49.71660 99.69362 38061 ft 422 kts 306°
2026-05-08 22:47 49.74526 99.63247 38058 ft 422 kts 306°
2026-05-08 22:48 49.77970 99.55888 38058 ft 423 kts 306°
2026-05-08 22:48 49.81411 99.48511 38065 ft 423 kts 306°
2026-05-08 22:49 49.84850 99.41124 38061 ft 423 kts 306°
2026-05-08 22:49 49.90020 99.30022 38080 ft 423 kts 306°
2026-05-08 22:50 49.93450 99.22655 38066 ft 423 kts 306°
2026-05-08 22:50 49.96891 99.15241 38065 ft 423 kts 306°
2026-05-08 22:51 50.00260 99.07837 38034 ft 412 kts 305°
2026-05-08 22:51 50.03566 99.00607 38071 ft 409 kts 305°
2026-05-08 22:52 50.06857 98.93387 38085 ft 409 kts 305°
2026-05-08 22:52 50.10150 98.86156 38091 ft 409 kts 305°
2026-05-08 22:53 50.13451 98.78928 38082 ft 409 kts 305°
2026-05-08 22:53 50.16734 98.71750 38082 ft 409 kts 305°
2026-05-08 22:54 50.20018 98.64498 38078 ft 408 kts 305°
2026-05-08 22:54 50.23297 98.57242 38085 ft 409 kts 305°
2026-05-08 22:55 50.26551 98.49965 38087 ft 408 kts 305°
2026-05-08 22:55 50.29824 98.42675 38091 ft 409 kts 305°
2026-05-08 22:56 50.33065 98.35423 38096 ft 408 kts 304°
2026-05-08 22:56 50.36306 98.28102 38076 ft 409 kts 304°
2026-05-08 22:57 50.39518 98.20741 38092 ft 409 kts 304°
2026-05-08 22:57 50.42772 98.13408 38092 ft 409 kts 304°
2026-05-08 22:58 50.46007 98.06054 38094 ft 409 kts 304°
2026-05-08 22:58 50.49242 97.98688 38111 ft 409 kts 304°
2026-05-08 22:59 50.52474 97.91298 38030 ft 410 kts 304°
2026-05-08 22:59 50.55678 97.83959 38014 ft 410 kts 304°
2026-05-08 23:00 50.58898 97.76572 38026 ft 409 kts 304°
2026-05-08 23:00 50.62109 97.69166 38027 ft 409 kts 304°
2026-05-08 23:01 50.65307 97.61739 38028 ft 408 kts 304°
2026-05-08 23:01 50.68502 97.54329 38034 ft 408 kts 304°
2026-05-08 23:02 50.71697 97.46920 38014 ft 408 kts 304°
2026-05-08 23:02 50.74870 97.39572 38004 ft 408 kts 304°
2026-05-08 23:03 50.78068 97.32167 38028 ft 407 kts 304°
2026-05-08 23:03 50.81243 97.24744 38037 ft 407 kts 303°
2026-05-08 23:04 50.84414 97.17317 38028 ft 408 kts 303°
2026-05-08 23:04 50.87555 97.09906 38045 ft 408 kts 303°
2026-05-08 23:05 50.90716 97.02425 38024 ft 408 kts 303°
2026-05-08 23:05 50.93871 96.94958 38048 ft 408 kts 303°
2026-05-08 23:06 50.97023 96.87476 38048 ft 408 kts 304°
2026-05-08 23:06 51.00167 96.79973 38061 ft 407 kts 303°
2026-05-08 23:07 51.03288 96.72533 38061 ft 407 kts 303°
2026-05-08 23:07 51.06429 96.65010 38050 ft 407 kts 304°
2026-05-08 23:08 51.09559 96.57506 38058 ft 407 kts 304°
2026-05-08 23:08 51.12685 96.49998 38063 ft 407 kts 304°
2026-05-08 23:09 51.15811 96.42488 38053 ft 406 kts 304°
2026-05-08 23:09 51.18931 96.34979 38036 ft 406 kts 304°
2026-05-08 23:10 51.22032 96.27508 38054 ft 406 kts 303°
2026-05-08 23:10 51.25121 96.19973 38050 ft 405 kts 303°
2026-05-08 23:11 51.28203 96.12430 38055 ft 405 kts 303°
2026-05-08 23:11 51.31285 96.04885 38052 ft 405 kts 303°
2026-05-08 23:12 51.34347 95.97336 38029 ft 405 kts 303°
2026-05-08 23:12 51.37408 95.89795 38025 ft 404 kts 303°
2026-05-08 23:13 51.40439 95.82293 38043 ft 403 kts 303°
2026-05-08 23:13 51.43481 95.74740 38058 ft 403 kts 303°
2026-05-08 23:14 51.46520 95.67175 38047 ft 403 kts 303°
2026-05-08 23:14 51.49551 95.59621 38041 ft 403 kts 303°
2026-05-08 23:15 51.52578 95.52067 38030 ft 402 kts 303°
2026-05-08 23:15 51.55606 95.44512 38038 ft 402 kts 303°
2026-05-08 23:16 51.58634 95.36966 38024 ft 402 kts 303°
2026-05-08 23:16 51.61638 95.29393 38026 ft 401 kts 303°
2026-05-08 23:17 51.64616 95.21850 38031 ft 401 kts 303°
2026-05-08 23:17 51.67602 95.14257 38023 ft 401 kts 303°
2026-05-08 23:18 51.70587 95.06666 38026 ft 401 kts 303°
2026-05-08 23:18 51.73563 94.99057 38020 ft 401 kts 303°
2026-05-08 23:19 51.76531 94.91432 38011 ft 400 kts 303°
2026-05-08 23:19 51.79505 94.83832 37993 ft 401 kts 303°
2026-05-08 23:20 51.82472 94.76202 38031 ft 400 kts 303°
2026-05-08 23:20 51.85441 94.68582 38038 ft 400 kts 303°
2026-05-08 23:21 51.88390 94.61009 38042 ft 400 kts 303°
2026-05-08 23:21 51.91329 94.53364 38036 ft 400 kts 302°
2026-05-08 23:22 51.94260 94.45717 38040 ft 399 kts 302°
2026-05-08 23:22 51.97184 94.38066 38047 ft 399 kts 302°
2026-05-08 23:23 52.00100 94.30411 38047 ft 399 kts 302°
2026-05-08 23:23 52.03002 94.22751 38062 ft 398 kts 302°
2026-05-08 23:24 52.05909 94.15088 38070 ft 398 kts 302°
2026-05-08 23:24 52.08805 94.07415 38062 ft 398 kts 302°
2026-05-08 23:25 52.11696 93.99745 38067 ft 398 kts 302°
2026-05-08 23:25 52.14691 93.92268 38057 ft 397 kts 314°
2026-05-08 23:26 52.16955 93.89661 38109 ft 399 kts 335°
2026-05-08 23:26 52.19619 93.88487 38117 ft 406 kts 347°
2026-05-08 23:26 52.25273 93.87392 38089 ft 410 kts 348°
2026-05-08 23:27 52.30900 93.85970 38090 ft 407 kts 346°
2026-05-08 23:27 52.36479 93.84329 38092 ft 408 kts 346°
2026-05-08 23:28 52.42080 93.82731 38095 ft 409 kts 346°
2026-05-08 23:28 52.47699 93.81129 38093 ft 410 kts 346°
2026-05-08 23:29 52.53320 93.79508 38098 ft 410 kts 346°
2026-05-08 23:29 52.56098 93.78494 38093 ft 405 kts 335°
2026-05-08 23:29 52.58471 93.76159 38125 ft 396 kts 316°
2026-05-08 23:30 52.61987 93.69151 37737 ft 401 kts 306°
2026-05-08 23:30 52.63655 93.65458 37152 ft 402 kts 307°
2026-05-08 23:30 52.65371 93.61821 36588 ft 401 kts 308°
2026-05-08 23:31 52.67102 93.58291 36018 ft 400 kts 309°
2026-05-08 23:31 52.68863 93.54752 35477 ft 398 kts 309°
2026-05-08 23:31 52.70610 93.51215 34934 ft 397 kts 309°
2026-05-08 23:31 52.72355 93.47683 34379 ft 396 kts 309°
2026-05-08 23:32 52.74088 93.44156 33832 ft 396 kts 309°
2026-05-08 23:32 52.75820 93.40622 33218 ft 396 kts 309°
2026-05-08 23:32 52.77549 93.37076 32657 ft 397 kts 309°
2026-05-08 23:32 52.79290 93.33513 32047 ft 399 kts 309°
2026-05-08 23:33 52.81030 93.29931 31499 ft 402 kts 309°
2026-05-08 23:33 52.82794 93.26311 30935 ft 404 kts 309°
2026-05-08 23:33 52.84559 93.22673 30400 ft 407 kts 309°
2026-05-08 23:33 52.86342 93.19016 29813 ft 409 kts 309°
2026-05-08 23:34 52.88123 93.15326 29196 ft 412 kts 309°
2026-05-08 23:34 52.89895 93.11670 28592 ft 414 kts 309°
2026-05-08 23:34 52.91702 93.07939 28004 ft 416 kts 309°
2026-05-08 23:34 52.93494 93.04220 27412 ft 408 kts 309°
2026-05-08 23:35 52.95243 93.00585 26843 ft 399 kts 309°
2026-05-08 23:35 52.96964 92.97014 26272 ft 392 kts 309°
2026-05-08 23:35 52.98091 92.94679 25908 ft 389 kts 309°
2026-05-08 23:35 52.99781 92.91181 25358 ft 386 kts 309°
2026-05-08 23:36 53.01452 92.87723 24825 ft 383 kts 309°
2026-05-08 23:36 53.03117 92.84277 24298 ft 380 kts 309°
2026-05-08 23:36 53.04768 92.80864 23783 ft 378 kts 309°
2026-05-08 23:36 53.06403 92.77458 23211 ft 376 kts 308°
2026-05-08 23:37 53.08021 92.74057 22601 ft 374 kts 309°
2026-05-08 23:37 53.09629 92.70679 22025 ft 371 kts 308°
2026-05-08 23:37 53.11233 92.67324 21447 ft 369 kts 309°
2026-05-08 23:37 53.12823 92.63970 20882 ft 367 kts 308°
2026-05-08 23:38 53.14396 92.60636 20334 ft 365 kts 309°
2026-05-08 23:38 53.15966 92.57323 19789 ft 363 kts 308°
2026-05-08 23:38 53.17528 92.54024 19257 ft 362 kts 309°
2026-05-08 23:38 53.19080 92.50732 18734 ft 360 kts 308°
2026-05-08 23:39 53.20624 92.47454 18199 ft 358 kts 309°
2026-05-08 23:39 53.22161 92.44196 17608 ft 357 kts 308°
2026-05-08 23:39 53.23685 92.40947 17030 ft 354 kts 308°
2026-05-08 23:39 53.25180 92.37761 16467 ft 352 kts 308°
2026-05-08 23:40 53.26688 92.34549 15910 ft 349 kts 308°
2026-05-08 23:40 53.28183 92.31363 15387 ft 347 kts 308°
2026-05-08 23:40 53.29667 92.28205 14886 ft 344 kts 308°
2026-05-08 23:40 53.31144 92.25066 14408 ft 342 kts 308°
2026-05-08 23:41 53.32615 92.21944 13926 ft 341 kts 308°
2026-05-08 23:41 53.34080 92.18836 13415 ft 339 kts 308°
2026-05-08 23:41 53.35537 92.15749 12884 ft 337 kts 308°
2026-05-08 23:41 53.36971 92.12645 12367 ft 336 kts 308°
2026-05-08 23:42 53.38399 92.09548 11860 ft 335 kts 308°
2026-05-08 23:42 53.39823 92.06469 11401 ft 334 kts 308°
2026-05-08 23:42 53.41226 92.03429 10960 ft 334 kts 308°
2026-05-08 23:42 53.42647 92.00354 10523 ft 333 kts 308°
2026-05-08 23:43 53.44069 91.97285 10096 ft 333 kts 308°
2026-05-08 23:43 53.45493 91.94225 9640 ft 332 kts 308°
2026-05-08 23:43 53.46900 91.91207 9165 ft 323 kts 308°
2026-05-08 23:43 53.48261 91.88288 8700 ft 312 kts 308°
2026-05-08 23:44 53.49580 91.85459 8243 ft 304 kts 308°
2026-05-08 23:44 53.50855 91.82686 7787 ft 296 kts 309°
2026-05-08 23:44 53.52467 91.80650 7338 ft 289 kts 338°
2026-05-08 23:44 53.54396 91.79831 6913 ft 284 kts 349°
2026-05-08 23:45 53.56335 91.79241 6459 ft 280 kts 349°
2026-05-08 23:45 53.58229 91.78618 6010 ft 276 kts 348°
2026-05-08 23:45 53.60096 91.77942 5556 ft 273 kts 347°
2026-05-08 23:45 53.61947 91.77244 5089 ft 272 kts 347°
2026-05-08 23:46 53.63759 91.76552 4712 ft 269 kts 346°
2026-05-08 23:46 53.65582 91.75817 4328 ft 268 kts 346°
2026-05-08 23:46 53.67397 91.75106 3950 ft 266 kts 347°
2026-05-08 23:46 53.69186 91.74395 3719 ft 261 kts 346°
2026-05-08 23:47 53.70957 91.73682 3594 ft 262 kts 347°
2026-05-08 23:47 53.72723 91.72974 3604 ft 261 kts 346°
2026-05-08 23:47 53.74491 91.72261 3607 ft 261 kts 347°
2026-05-08 23:47 53.76260 91.71538 3609 ft 261 kts 346°
2026-05-08 23:48 53.78031 91.70817 3611 ft 261 kts 347°
2026-05-08 23:48 53.79804 91.70107 3619 ft 261 kts 346°
2026-05-08 23:48 53.81573 91.69390 3624 ft 261 kts 347°
2026-05-08 23:48 53.83343 91.68670 3620 ft 261 kts 346°
2026-05-08 23:49 53.85085 91.67951 3608 ft 261 kts 343°
2026-05-08 23:49 53.86598 91.66335 3603 ft 260 kts 309°
2026-05-08 23:49 53.87313 91.63550 3614 ft 260 kts 281°
2026-05-08 23:49 53.87530 91.60608 3604 ft 243 kts 276°
2026-05-08 23:50 53.87693 91.57863 3601 ft 225 kts 277°
2026-05-08 23:50 53.87861 91.55326 3608 ft 210 kts 277°
2026-05-08 23:50 53.88040 91.52898 3613 ft 203 kts 278°
2026-05-08 23:50 53.88143 91.50617 3617 ft 190 kts 261°
2026-05-08 23:51 53.87453 91.48775 3625 ft 190 kts 212°
2026-05-08 23:51 53.86223 91.47963 3650 ft 192 kts 199°
2026-05-08 23:51 53.85009 91.47108 3517 ft 185 kts 206°
2026-05-08 23:51 53.83853 91.46175 3112 ft 182 kts 205°
2026-05-08 23:52 53.82715 91.45296 2715 ft 177 kts 205°
2026-05-08 23:52 53.81610 91.44432 2294 ft 172 kts 205°
2026-05-08 23:52 53.80558 91.43615 1976 ft 160 kts 205°
2026-05-08 23:52 53.79585 91.42856 1758 ft 149 kts 205°
2026-05-08 23:53 53.78680 91.42152 1568 ft 140 kts 205°
2026-05-08 23:53 53.77810 91.41473 1371 ft 136 kts 205°
2026-05-08 23:53 53.76966 91.40800 1206 ft 132 kts 205°
2026-05-08 23:53 53.76131 91.40153 1096 ft 133 kts 204°
2026-05-08 23:54 53.75295 91.39507 868 ft 128 kts 204°
2026-05-08 23:54 53.74536 91.38926 831 ft 100 kts 204°
2026-05-08 23:54 53.74040 91.38545 835 ft 62 kts 205°
2026-05-08 23:55 53.73547 91.38187 836 ft 11 kts 217°
2026-05-08 23:55 53.73556 91.38165 835 ft 2 kts 11°
2026-05-08 23:55 53.73624 91.38218 835 ft 18 kts 25°
2026-05-08 23:55 53.73771 91.38337 831 ft 28 kts 25°
2026-05-08 23:56 53.73966 91.38491 835 ft 34 kts 25°
2026-05-08 23:56 53.74182 91.38663 836 ft 34 kts 30°
2026-05-08 23:56 53.74357 91.38922 834 ft 31 kts 53°
2026-05-08 23:56 53.74467 91.39178 836 ft 23 kts 43°
2026-05-08 23:57 53.74610 91.39302 836 ft 23 kts 25°
2026-05-08 23:57 53.74725 91.39388 836 ft 13 kts 24°
2026-05-08 23:57 53.74781 91.39431 835 ft 4 kts 23°
2026-05-08 23:57 53.74816 91.39459 834 ft 11 kts 26°
2026-05-08 23:58 53.74893 91.39531 835 ft 8 kts 52°
2026-05-08 23:58 53.74885 91.39595 830 ft 5 kts 117°
2026-05-08 23:58 53.74879 91.39616 836 ft 0 kts 115°